Location: St. Louis
(38.6270°N, 90.1994°W)
Time: 22:57:59
(UTC-06:00)

Vanguard 1 - Pass Details

Date: 08 December 2021
Orbit: 652 x 3830 km, 34.2° (Epoch: 21 January)

Event Time Altitude Azimuth Distance (km) Brightness Sun altitude
Rises 02:31:46 0° 275° (W) 7,713 - -52.7°
Reaches altitude 10° 02:36:48 10° 274° (W) 6,844 - -51.7°
Exits shadow 03:00:12 72° 199° (SSW) 3,634 12.5 -47.2°
Maximum altitude 03:00:23 72° 196° (SSW) 3,626 12.5 -47.2°
Drops below altitude 10° 03:17:30 10° 116° (ESE) 5,212 14.2 -43.9°
Sets 03:20:44 0° 114° (ESE) 5,882 14.7 -43.2°
